Hourly Data Report for May 30, 2012

All times are specified in Local Standard Time (LST). Add 1 hour to adjust for Daylight Saving Time where and when it is observed.

LONDON A
ONTARIO

43°01'59.000" N
81°09'04.000" W
278.00 m
6144473
71623
YXU

Download Data

Hourly Data (May 2012)
Hourly Data Report for May 30, 2012
Temp Definition
°C
Dew Point Temp Definition
°C
Rel Hum Definition
%
Wind Dir Definition
10's deg

Wind Spd Definition
km/h
Visibility Definition
km
Stn Press Definition
kPa
Hmdx Definition


Wind Chill Definition


Weather Definition


TIME
00:00 Legend Double Dagger 18.3 10.0 58 28 12 10.0 97.57     LegendNANA
01:00 Legend Double Dagger 17.3 9.8 61 28 6 10.0 97.58     Mostly Cloudy
02:00 Legend Double Dagger 15.2 9.6 69 28 9 10.0 97.58     LegendNANA
03:00 Legend Double Dagger 13.8 9.3 74 31 8 10.0 97.59     LegendNANA
04:00 Legend Double Dagger 12.4 9.4 82   0 10.0 97.60     Mainly Clear
05:00 Legend Double Dagger 9.9 9.5 97 30 5 10.0 97.64     LegendNANA
06:00 Legend Double Dagger 12.3 10.6 89 29 4 10.0 97.69     LegendNANA
07:00 Legend Double Dagger 15.6 9.8 68 27 7 10.0 97.70     Clear
08:00 Legend Double Dagger 17.3 8.3 55 29 14 10.0 97.72     LegendNANA
09:00 Legend Double Dagger 18.7 8.5 51 26 18 10.0 97.74     LegendNANA
10:00 Legend Double Dagger 19.7 8.8 49 31 17 10.0 97.72     Mainly Clear
11:00 Legend Double Dagger 20.6 10.0 50 28 12 10.0 97.70     LegendNANA
12:00 Legend Double Dagger 19.3 7.2 45 31 18 10.0 97.69     LegendNANA
13:00 Legend Double Dagger 19.7 7.6 45 30 20 10.0 97.67     Mostly Cloudy
14:00 Legend Double Dagger 19.6 7.5 45 28 16 10.0 97.69     LegendNANA
15:00 Legend Double Dagger 19.3 7.8 47 28 10 10.0 97.69     LegendNANA
16:00 Legend Double Dagger 19.3 8.7 50 32 20 10.0 97.72     Mostly Cloudy
17:00 Legend Double Dagger 18.5 8.6 52 32 15 10.0 97.74     LegendNANA
18:00 Legend Double Dagger 17.3 9.6 60 34 18 10.0 97.76     LegendNANA
19:00 Legend Double Dagger 16.6 9.6 63 33 16 10.0 97.78     Mostly Cloudy
20:00 Legend Double Dagger 14.2 8.9 70 34 10 10.0 97.81     LegendNANA
21:00 Legend Double Dagger 14.2 8.7 69 36 13 10.0 97.90     LegendNANA
22:00 Legend Double Dagger 12.6 8.7 77 35 13 10.0 97.94     Mainly Clear
23:00 Legend Double Dagger 11.2 8.1 81 0 12 10.0 97.95     LegendNANA

Notes on Data Quality.

Legend

  • E = Estimated
  • M = Missing
  • NA = Not Available
  • ‡ = Partner data that is not subject to review by the National Climate Archives
Date modified: